NKS106 KFLL-KMCO

Flight info

Callsign NKS106
Flight time 0h 45m
Altitude 22000
Route FRSBE2 WAPOM MUNGI1
Aircraft A20N/M-SDE2E3FGHIRWXY/LB1

Departure

Time 2026-05-03 22:31
Airport Fort Lauderdale Hollywood International Airport (KFLL)

Arrival

Time 2026-05-03 23:16
Airport Orlando International Airport (KMCO)
Time Latitude Longitude Altitude Speed Heading
2026-05-03 21:23 26.06879 -80.14254 19 ft 0 kts 360°
2026-05-03 21:33 26.06878 -80.14254 19 ft 0 kts 360°
2026-05-03 21:52 26.06875 -80.14254 19 ft 3 kts 359°
2026-05-03 21:52 26.06851 -80.14252 20 ft 0 kts 345°
2026-05-03 21:56 26.06852 -80.14254 19 ft 0 kts 327°
2026-05-03 21:57 26.06851 -80.14264 21 ft 2 kts 247°
2026-05-03 21:57 26.06838 -80.14281 19 ft 0 kts 230°
2026-05-03 21:59 26.06832 -80.14289 19 ft 4 kts 234°
2026-05-03 21:59 26.06823 -80.14316 19 ft 4 kts 256°
2026-05-03 22:00 26.06820 -80.14330 19 ft 0 kts 260°
2026-05-03 22:01 26.06817 -80.14386 22 ft 12 kts 270°
2026-05-03 22:01 26.06818 -80.14466 19 ft 10 kts 270°
2026-05-03 22:01 26.06819 -80.14535 19 ft 9 kts 270°
2026-05-03 22:01 26.06807 -80.14571 19 ft 5 kts 216°
2026-05-03 22:02 26.06768 -80.14623 18 ft 9 kts 255°
2026-05-03 22:02 26.06765 -80.14690 18 ft 9 kts 272°
2026-05-03 22:02 26.06768 -80.14759 18 ft 9 kts 273°
2026-05-03 22:02 26.06766 -80.14827 18 ft 9 kts 269°
2026-05-03 22:03 26.06766 -80.14894 18 ft 9 kts 271°
2026-05-03 22:03 26.06767 -80.14961 18 ft 9 kts 271°
2026-05-03 22:03 26.06768 -80.15026 19 ft 8 kts 270°
2026-05-03 22:03 26.06768 -80.15091 19 ft 8 kts 264°
2026-05-03 22:04 26.06739 -80.15126 21 ft 3 kts 197°
2026-05-03 22:04 26.06704 -80.15152 23 ft 10 kts 239°
2026-05-03 22:04 26.06695 -80.15219 24 ft 8 kts 269°
2026-05-03 22:04 26.06695 -80.15283 20 ft 1 kts 272°
2026-05-03 22:05 26.06695 -80.15282 20 ft 0 kts 272°
2026-05-03 22:06 26.06695 -80.15297 19 ft 9 kts 272°
2026-05-03 22:07 26.06697 -80.15372 19 ft 10 kts 270°
2026-05-03 22:07 26.06696 -80.15418 19 ft 0 kts 269°
2026-05-03 22:07 26.06696 -80.15420 19 ft 0 kts 269°
2026-05-03 22:11 26.06697 -80.15471 19 ft 10 kts 270°
2026-05-03 22:11 26.06696 -80.15513 19 ft 0 kts 269°
2026-05-03 22:19 26.06696 -80.15527 19 ft 4 kts 271°
2026-05-03 22:19 26.06697 -80.15587 19 ft 8 kts 270°
2026-05-03 22:19 26.06697 -80.15596 19 ft 0 kts 270°
2026-05-03 22:19 26.06697 -80.15602 19 ft 6 kts 270°
2026-05-03 22:20 26.06697 -80.15640 19 ft 0 kts 271°
2026-05-03 22:23 26.06698 -80.15668 19 ft 4 kts 271°
2026-05-03 22:23 26.06698 -80.15675 19 ft 0 kts 270°
2026-05-03 22:23 26.06698 -80.15692 20 ft 6 kts 270°
2026-05-03 22:24 26.06698 -80.15735 19 ft 6 kts 270°
2026-05-03 22:24 26.06698 -80.15749 19 ft 0 kts 270°
2026-05-03 22:24 26.06698 -80.15748 19 ft 0 kts 270°
2026-05-03 22:25 26.06698 -80.15749 19 ft 1 kts 270°
2026-05-03 22:25 26.06698 -80.15760 19 ft 0 kts 270°
2026-05-03 22:25 26.06698 -80.15761 19 ft 0 kts 270°
2026-05-03 22:26 26.06698 -80.15765 19 ft 1 kts 270°
2026-05-03 22:26 26.06698 -80.15769 19 ft 0 kts 270°
2026-05-03 22:27 26.06696 -80.15793 19 ft 3 kts 257°
2026-05-03 22:27 26.06684 -80.15810 20 ft 0 kts 220°
2026-05-03 22:29 26.06684 -80.15811 20 ft 1 kts 220°
2026-05-03 22:29 26.06640 -80.15820 20 ft 7 kts 180°
2026-05-03 22:29 26.06605 -80.15810 21 ft 3 kts 153°
2026-05-03 22:30 26.06589 -80.15721 23 ft 25 kts 90°
2026-05-03 22:30 26.06586 -80.15255 26 ft 94 kts 90°
2026-05-03 22:30 26.06580 -80.14307 57 ft 147 kts 91°
2026-05-03 22:30 26.06562 -80.13075 373 ft 160 kts 90°
2026-05-03 22:31 26.06566 -80.11861 918 ft 162 kts 81°
2026-05-03 22:31 26.06882 -80.10596 1337 ft 183 kts 63°
2026-05-03 22:31 26.07572 -80.09242 1589 ft 221 kts 56°
2026-05-03 22:31 26.08565 -80.07776 1916 ft 250 kts 42°
2026-05-03 22:32 26.10047 -80.06709 2620 ft 259 kts 22°
2026-05-03 22:32 26.11745 -80.05973 3365 ft 266 kts 18°
2026-05-03 22:32 26.13514 -80.05285 3818 ft 270 kts 15°
2026-05-03 22:32 26.15349 -80.04891 3980 ft 269 kts 358°
2026-05-03 22:33 26.17160 -80.05207 4003 ft 266 kts 341°
2026-05-03 22:33 26.18921 -80.05852 4010 ft 267 kts 338°
2026-05-03 22:33 26.20655 -80.06608 4408 ft 268 kts 330°
2026-05-03 22:33 26.22161 -80.07802 5275 ft 265 kts 311°
2026-05-03 22:34 26.23186 -80.09487 6214 ft 263 kts 294°
2026-05-03 22:34 26.23912 -80.11365 7089 ft 265 kts 289°
2026-05-03 22:34 26.24577 -80.13277 7993 ft 265 kts 289°
2026-05-03 22:34 26.25257 -80.15198 8920 ft 268 kts 291°
2026-05-03 22:35 26.26136 -80.17045 9868 ft 271 kts 297°
2026-05-03 22:35 26.27139 -80.18868 10617 ft 285 kts 299°
2026-05-03 22:35 26.28236 -80.20805 11011 ft 305 kts 299°
2026-05-03 22:35 26.29397 -80.22839 11633 ft 314 kts 299°
2026-05-03 22:36 26.30579 -80.24910 12374 ft 319 kts 299°
2026-05-03 22:36 26.31776 -80.27009 12839 ft 321 kts 299°
2026-05-03 22:36 26.32978 -80.29124 13318 ft 326 kts 298°
2026-05-03 22:36 26.34195 -80.31267 14152 ft 327 kts 298°
2026-05-03 22:37 26.35416 -80.33418 14933 ft 330 kts 298°
2026-05-03 22:37 26.36647 -80.35589 15685 ft 332 kts 298°
2026-05-03 22:37 26.37885 -80.37774 16433 ft 335 kts 297°
2026-05-03 22:37 26.39132 -80.39979 17153 ft 338 kts 297°
2026-05-03 22:38 26.40391 -80.42204 17914 ft 341 kts 297°
2026-05-03 22:38 26.41663 -80.44456 18621 ft 345 kts 297°
2026-05-03 22:38 26.42947 -80.46728 19292 ft 348 kts 297°
2026-05-03 22:38 26.44243 -80.49021 19912 ft 351 kts 297°
2026-05-03 22:39 26.45551 -80.51336 20536 ft 354 kts 296°
2026-05-03 22:39 26.46894 -80.53658 21234 ft 359 kts 300°
2026-05-03 22:39 26.48596 -80.55754 21785 ft 373 kts 313°
2026-05-03 22:39 26.50840 -80.57233 22004 ft 390 kts 330°
2026-05-03 22:40 26.53490 -80.58198 22042 ft 398 kts 336°
2026-05-03 22:40 26.56165 -80.59016 22064 ft 400 kts 337°
2026-05-03 22:40 26.58854 -80.59829 22050 ft 401 kts 336°
2026-05-03 22:40 26.61545 -80.60655 22048 ft 401 kts 336°
2026-05-03 22:41 26.64194 -80.61480 22036 ft 401 kts 336°
2026-05-03 22:41 26.66879 -80.62324 22046 ft 400 kts 336°
2026-05-03 22:41 26.69561 -80.63172 22043 ft 400 kts 336°
2026-05-03 22:41 26.72241 -80.64022 22043 ft 400 kts 336°
2026-05-03 22:42 26.74923 -80.64875 22041 ft 400 kts 336°
2026-05-03 22:42 26.77604 -80.65728 22049 ft 400 kts 336°
2026-05-03 22:42 26.79413 -80.66305 22051 ft 400 kts 336°
2026-05-03 22:42 26.82094 -80.67160 22045 ft 400 kts 336°
2026-05-03 22:43 26.84738 -80.68003 22049 ft 400 kts 336°
2026-05-03 22:43 26.87421 -80.68860 22059 ft 400 kts 335°
2026-05-03 22:43 26.90101 -80.69715 22045 ft 400 kts 335°
2026-05-03 22:43 26.92746 -80.70643 22048 ft 397 kts 333°
2026-05-03 22:44 26.95369 -80.71627 22048 ft 397 kts 333°
2026-05-03 22:44 26.97986 -80.72620 22047 ft 397 kts 333°
2026-05-03 22:44 27.00600 -80.73613 22047 ft 397 kts 333°
2026-05-03 22:44 27.03216 -80.74605 22047 ft 397 kts 333°
2026-05-03 22:45 27.05832 -80.75596 22048 ft 397 kts 333°
2026-05-03 22:45 27.08444 -80.76586 22047 ft 397 kts 333°
2026-05-03 22:45 27.11058 -80.77577 22046 ft 397 kts 333°
2026-05-03 22:45 27.13639 -80.78555 22046 ft 397 kts 333°
2026-05-03 22:46 27.16255 -80.79547 22046 ft 397 kts 333°
2026-05-03 22:46 27.18870 -80.80539 22051 ft 396 kts 333°
2026-05-03 22:46 27.21483 -80.81531 22045 ft 396 kts 333°
2026-05-03 22:46 27.24091 -80.82521 22045 ft 396 kts 333°
2026-05-03 22:47 27.26701 -80.83513 22045 ft 396 kts 333°
2026-05-03 22:47 27.29309 -80.84505 22046 ft 396 kts 333°
2026-05-03 22:47 27.31929 -80.85483 22044 ft 398 kts 334°
2026-05-03 22:47 27.34599 -80.86333 22045 ft 400 kts 336°
2026-05-03 22:48 27.37291 -80.87134 22046 ft 400 kts 336°
2026-05-03 22:48 27.39986 -80.87928 22048 ft 400 kts 336°
2026-05-03 22:48 27.42662 -80.88715 21978 ft 393 kts 336°
2026-05-03 22:48 27.45277 -80.89483 21724 ft 383 kts 336°
2026-05-03 22:49 27.47831 -80.90238 21380 ft 376 kts 336°
2026-05-03 22:49 27.50368 -80.90996 20767 ft 378 kts 336°
2026-05-03 22:49 27.52921 -80.91761 20142 ft 380 kts 336°
2026-05-03 22:49 27.55474 -80.92523 19674 ft 378 kts 337°
2026-05-03 22:50 27.58004 -80.93275 19161 ft 373 kts 337°
2026-05-03 22:50 27.60506 -80.94020 18548 ft 369 kts 337°
2026-05-03 22:50 27.62954 -80.94750 17813 ft 366 kts 338°
2026-05-03 22:50 27.65399 -80.95480 17123 ft 361 kts 338°
2026-05-03 22:51 27.67810 -80.96199 16499 ft 355 kts 338°
2026-05-03 22:51 27.70171 -80.96904 15940 ft 348 kts 338°
2026-05-03 22:51 27.72496 -80.97598 15377 ft 342 kts 339°
2026-05-03 22:51 27.74779 -80.98282 14811 ft 337 kts 339°
2026-05-03 22:52 27.77031 -80.98956 14282 ft 333 kts 339°
2026-05-03 22:52 27.79256 -80.99623 13735 ft 329 kts 339°
2026-05-03 22:52 27.81451 -81.00281 13163 ft 324 kts 339°
2026-05-03 22:52 27.83612 -81.00928 12639 ft 318 kts 339°
2026-05-03 22:53 27.85737 -81.01564 12120 ft 314 kts 339°
2026-05-03 22:53 27.87838 -81.02195 11587 ft 310 kts 339°
2026-05-03 22:53 27.89913 -81.02818 11068 ft 307 kts 339°
2026-05-03 22:53 27.91967 -81.03435 10557 ft 304 kts 339°
2026-05-03 22:54 27.93956 -81.04114 10245 ft 290 kts 335°
2026-05-03 22:54 27.95843 -81.04879 9761 ft 287 kts 334°
2026-05-03 22:54 27.97706 -81.05667 9237 ft 284 kts 334°
2026-05-03 22:54 27.99548 -81.06450 8781 ft 281 kts 334°
2026-05-03 22:55 28.01367 -81.07224 8327 ft 278 kts 335°
2026-05-03 22:55 28.03147 -81.07979 7887 ft 276 kts 335°
2026-05-03 22:55 28.04932 -81.08737 7430 ft 274 kts 336°
2026-05-03 22:55 28.06699 -81.09486 7164 ft 263 kts 336°
2026-05-03 22:56 28.08361 -81.10183 7095 ft 246 kts 336°
2026-05-03 22:56 28.09927 -81.10836 6913 ft 235 kts 336°
2026-05-03 22:56 28.11445 -81.11472 6637 ft 231 kts 335°
2026-05-03 22:56 28.12945 -81.12115 6269 ft 230 kts 332°
2026-05-03 22:57 28.14328 -81.12971 5922 ft 224 kts 320°
2026-05-03 22:57 28.15391 -81.14262 5345 ft 230 kts 301°
2026-05-03 22:57 28.16145 -81.15941 4548 ft 248 kts 295°
2026-05-03 22:57 28.16835 -81.17800 3737 ft 263 kts 293°
2026-05-03 22:58 28.17523 -81.19758 3213 ft 270 kts 293°
2026-05-03 22:58 28.18200 -81.21749 3037 ft 271 kts 293°
2026-05-03 22:58 28.18875 -81.23715 3012 ft 270 kts 293°
2026-05-03 22:58 28.19560 -81.25702 3015 ft 270 kts 293°
2026-05-03 22:59 28.20231 -81.27695 3014 ft 271 kts 293°
2026-05-03 22:59 28.21134 -81.29539 3019 ft 266 kts 315°
2026-05-03 22:59 28.22626 -81.30683 3016 ft 258 kts 345°
2026-05-03 22:59 28.24370 -81.30895 3016 ft 252 kts
2026-05-03 23:00 28.26093 -81.30554 3031 ft 248 kts 17°
2026-05-03 23:00 28.27667 -81.29962 3032 ft 231 kts 25°
2026-05-03 23:00 28.29078 -81.29141 2748 ft 228 kts 32°
2026-05-03 23:00 28.30513 -81.28375 2446 ft 229 kts 18°
2026-05-03 23:01 28.32119 -81.28164 2325 ft 231 kts
2026-05-03 23:01 28.33723 -81.28108 2044 ft 231 kts
2026-05-03 23:01 28.35319 -81.28172 1330 ft 224 kts
2026-05-03 23:01 28.36854 -81.28213 1045 ft 211 kts
2026-05-03 23:02 28.38255 -81.28172 678 ft 195 kts
2026-05-03 23:02 28.39629 -81.28226 596 ft 198 kts
2026-05-03 23:02 28.40971 -81.28209 313 ft 191 kts
2026-05-03 23:02 28.42283 -81.28237 124 ft 178 kts
2026-05-03 23:03 28.43465 -81.28248 181 ft 168 kts
2026-05-03 23:03 28.44689 -81.28248 776 ft 184 kts
2026-05-03 23:03 28.45972 -81.28253 1738 ft 184 kts
2026-05-03 23:03 28.47246 -81.28215 2691 ft 182 kts
2026-05-03 23:04 28.48550 -81.28126 3289 ft 199 kts
2026-05-03 23:04 28.49967 -81.27977 3478 ft 209 kts
2026-05-03 23:04 28.51429 -81.27831 3409 ft 211 kts
2026-05-03 23:04 28.52890 -81.27666 3357 ft 211 kts
2026-05-03 23:05 28.54304 -81.27328 3116 ft 205 kts 29°
2026-05-03 23:05 28.55273 -81.26186 3020 ft 204 kts 64°
2026-05-03 23:05 28.55445 -81.24598 2989 ft 209 kts 98°
2026-05-03 23:05 28.54972 -81.23033 2992 ft 209 kts 112°
2026-05-03 23:06 28.54039 -81.21773 3013 ft 214 kts 146°
2026-05-03 23:06 28.52620 -81.21234 3020 ft 219 kts 168°
2026-05-03 23:06 28.51086 -81.21055 3019 ft 224 kts 172°
2026-05-03 23:06 28.49532 -81.20935 3010 ft 224 kts 173°
2026-05-03 23:07 28.47978 -81.20818 3010 ft 224 kts 173°
2026-05-03 23:07 28.46429 -81.20702 3004 ft 223 kts 173°
2026-05-03 23:07 28.44881 -81.20590 3005 ft 222 kts 173°
2026-05-03 23:07 28.43330 -81.20484 3008 ft 223 kts 173°
2026-05-03 23:08 28.41795 -81.20382 3012 ft 225 kts 173°
2026-05-03 23:08 28.40232 -81.20279 3004 ft 224 kts 173°
2026-05-03 23:08 28.38673 -81.20177 3005 ft 224 kts 174°
2026-05-03 23:08 28.37118 -81.20067 3012 ft 224 kts 173°
2026-05-03 23:09 28.35563 -81.19973 3002 ft 224 kts 174°
2026-05-03 23:09 28.34002 -81.19882 3009 ft 225 kts 172°
2026-05-03 23:09 28.32440 -81.19799 3008 ft 225 kts 172°
2026-05-03 23:09 28.30877 -81.19718 3006 ft 224 kts 173°
2026-05-03 23:10 28.29317 -81.19636 3013 ft 225 kts 173°
2026-05-03 23:10 28.27757 -81.19543 3005 ft 223 kts 172°
2026-05-03 23:10 28.26206 -81.19465 3004 ft 223 kts 173°
2026-05-03 23:10 28.24675 -81.19748 2996 ft 228 kts 202°
2026-05-03 23:11 28.23461 -81.20910 3019 ft 232 kts 235°
2026-05-03 23:11 28.22872 -81.22597 3025 ft 231 kts 257°
2026-05-03 23:11 28.22600 -81.24393 2876 ft 231 kts 264°
2026-05-03 23:11 28.22772 -81.26151 2558 ft 223 kts 297°
2026-05-03 23:12 28.23777 -81.27393 2227 ft 211 kts 335°
2026-05-03 23:12 28.25107 -81.27997 2045 ft 202 kts 351°
2026-05-03 23:12 28.26495 -81.28130 2050 ft 201 kts
2026-05-03 23:12 28.27898 -81.28131 2019 ft 204 kts
2026-05-03 23:13 28.29304 -81.28147 2018 ft 204 kts
2026-05-03 23:13 28.30722 -81.28155 2006 ft 204 kts
2026-05-03 23:13 28.32144 -81.28158 1998 ft 203 kts
2026-05-03 23:13 28.33536 -81.28151 1752 ft 195 kts
2026-05-03 23:14 28.34843 -81.28162 1502 ft 177 kts
2026-05-03 23:14 28.36006 -81.28176 1257 ft 162 kts
2026-05-03 23:14 28.37061 -81.28187 1097 ft 141 kts
2026-05-03 23:14 28.38002 -81.28195 885 ft 131 kts
2026-05-03 23:15 28.38912 -81.28198 688 ft 131 kts
2026-05-03 23:15 28.39833 -81.28202 551 ft 137 kts
2026-05-03 23:15 28.40801 -81.28207 325 ft 139 kts
2026-05-03 23:15 28.41769 -81.28231 169 ft 139 kts
2026-05-03 23:16 28.42688 -81.28241 101 ft 120 kts
2026-05-03 23:16 28.43316 -81.28251 98 ft 46 kts 359°
2026-05-03 23:16 28.43518 -81.28315 99 ft 16 kts 309°
2026-05-03 23:16 28.43488 -81.28371 100 ft 8 kts 186°
2026-05-03 23:17 28.43432 -81.28372 98 ft 8 kts 180°
2026-05-03 23:17 28.43374 -81.28371 98 ft 8 kts 179°
2026-05-03 23:17 28.43316 -81.28370 99 ft 8 kts 178°
2026-05-03 23:17 28.43258 -81.28370 99 ft 8 kts 180°
2026-05-03 23:18 28.43149 -81.28369 99 ft 18 kts 180°
2026-05-03 23:18 28.43026 -81.28366 100 ft 18 kts 178°
2026-05-03 23:18 28.42901 -81.28366 98 ft 19 kts 181°
2026-05-03 23:18 28.42772 -81.28365 98 ft 18 kts 178°
2026-05-03 23:19 28.42645 -81.28364 99 ft 18 kts 181°
2026-05-03 23:19 28.42529 -81.28377 101 ft 16 kts 212°
2026-05-03 23:19 28.42481 -81.28486 99 ft 16 kts 249°
2026-05-03 23:19 28.42448 -81.28593 101 ft 13 kts 250°
2026-05-03 23:20 28.42417 -81.28693 101 ft 18 kts 250°
2026-05-03 23:20 28.42390 -81.28776 106 ft 17 kts 256°
2026-05-03 23:20 28.42349 -81.28909 107 ft 16 kts 249°
2026-05-03 23:20 28.42289 -81.29136 97 ft 35 kts 254°
2026-05-03 23:21 28.42280 -81.29356 97 ft 14 kts 270°
2026-05-03 23:21 28.42283 -81.29437 98 ft 9 kts 270°
2026-05-03 23:21 28.42283 -81.29463 98 ft 0 kts 270°
2026-05-03 23:24 28.42283 -81.29467 98 ft 0 kts 270°
2026-05-03 23:26 28.42283 -81.29469 98 ft 1 kts 270°
2026-05-03 23:26 28.42284 -81.29545 97 ft 20 kts 271°
2026-05-03 23:26 28.42280 -81.29760 98 ft 24 kts 269°
2026-05-03 23:26 28.42283 -81.29841 98 ft 3 kts 275°
2026-05-03 23:27 28.42279 -81.29923 97 ft 10 kts 275°
2026-05-03 23:27 28.42274 -81.30065 97 ft 31 kts 263°
2026-05-03 23:27 28.42277 -81.30226 97 ft 28 kts 270°
2026-05-03 23:27 28.42270 -81.30430 99 ft 24 kts 266°
2026-05-03 23:28 28.42258 -81.30601 99 ft 19 kts 265°
2026-05-03 23:28 28.42245 -81.30786 98 ft 23 kts 266°
2026-05-03 23:28 28.42236 -81.30939 98 ft 14 kts 260°
2026-05-03 23:28 28.42238 -81.31054 98 ft 18 kts 279°
2026-05-03 23:29 28.42263 -81.31211 99 ft 22 kts 276°
2026-05-03 23:29 28.42269 -81.31364 98 ft 16 kts 270°
2026-05-03 23:29 28.42268 -81.31452 99 ft 10 kts 268°
2026-05-03 23:29 28.42269 -81.31529 100 ft 9 kts 269°
2026-05-03 23:30 28.42266 -81.31607 100 ft 11 kts 268°
2026-05-03 23:30 28.42316 -81.31667 102 ft 12 kts
2026-05-03 23:30 28.42351 -81.31667 102 ft 0 kts